Hourly Data Report for September 02, 2017

All times are specified in Local Standard Time (LST). Add 1 hour to adjust for Daylight Saving Time where and when it is observed.

RANKIN INLET A
NUNAVUT

62°48'38.000" N
92°06'53.000" W
32.30 m
2303405
71083
YRT

Download Data

Hourly Data (September 2017)
Hourly Data Report for September 2, 2017
Temp Definition
°C
Dew Point Temp Definition
°C
Rel Hum Definition
%
Wind Dir Definition
10's deg

Wind Spd Definition
km/h
Visibility Definition
km
Stn Press Definition
kPa
Hmdx Definition


Wind Chill Definition


Weather Definition


TIME
00:00 Legend Double Dagger 7.4 6.9 97 6 41 16.1 98.88     Cloudy
01:00 Legend Double Dagger 7.3 6.3 94 5 50 16.1 98.78     Rain Showers
02:00 Legend Double Dagger 6.8 5.8 93 5 40 16.1 98.70     Rain Showers
03:00 Legend Double Dagger 6.3 5.2 93 5 50 16.1 98.73     Rain Showers
04:00 Legend Double Dagger 5.6 4.6 94 5 54 16.1 98.72     Rain Showers
05:00 Legend Double Dagger 5.1 4.1 93 5 60 6.4 98.67     Rain Showers
06:00 Legend Double Dagger 5.3 3.8 90 4 72 12.9 98.68     Rain Showers
07:00 Legend Double Dagger 5.2 4.0 92 4 52 16.1 98.69     Rain Showers
08:00 Legend Double Dagger 4.9 3.7 92 4 56 9.7 98.68     Rain Showers
09:00 Legend Double Dagger 5.2 3.6 90 3 54 16.1 98.71     Rain Showers
10:00 Legend Double Dagger 5.1 3.8 92 3 50 16.1 98.71     Rain Showers
11:00 Legend Double Dagger 5.1 3.8 91 3 59 6.4 98.71     Rain Showers
12:00 Legend Double Dagger 5.2 3.7 90 2 54 6.4 98.70     Rain Showers
13:00 Legend Double Dagger 5.0 3.9 92 2 59 4.8 98.70     Rain Showers
14:00 Legend Double Dagger 5.2 3.7 90 2 58 12.9 98.74     Rain Showers
15:00 Legend Double Dagger 5.6 3.9 89 2 57 16.1 98.79     Rain Showers
16:00 Legend Double Dagger 5.7 4.0 89 2 60 24.1 98.82     LegendNANA
17:00 Legend Double Dagger 5.7 3.6 86 2 68 24.1 98.84     LegendNANA
18:00 Legend Double Dagger 5.6 3.7 88 2 59 24.1 98.88     Cloudy
19:00 Legend Double Dagger 5.6 3.3 85 2 62 24.1 98.89     LegendNANA
20:00 Legend Double Dagger 5.7 3.1 83 2 63 24.1 98.95     LegendNANA
21:00 Legend Double Dagger 5.6 3.6 87 2 59 24.1 98.92     Cloudy
22:00 Legend Double Dagger 5.4 4.0 91 1 58 24.1 98.91     LegendNANA
23:00 Legend Double Dagger 5.4 4.0 90 2 57 19.3 98.88     Snow

Notes on Data Quality.

Legend

  • E = Estimated
  • M = Missing
  • NA = Not Available
  • ‡ = Partner data that is not subject to review by the National Climate Archives
Date modified: